Regional Weather Roundup
Issued by NWS

Home | Current Version | Previous Version | Graphics & Text | Print | Product List | Glossary On
Versions: 1 2 3 4 5 6 7 8 9 10 11 12 13 14 15 16 17 18 19 20 21 22 23 24 25 26 27 28 29 30 31 32 33 34 35 36 37 38 39 40 41 42 43 44 45 46 47 48 49 50
164
ASUS43 KFSD 271602
RWRSD

WEATHER ROUNDUP FOR SOUTH DAKOTA
NATIONAL WEATHER SERVICE SIOUX FALLS SD
1100 AM CDT TUE JUN 27 2017

NOTE: "FAIR" INDICATES FEW OR NO CLOUDS BELOW 12,000 FEET WITH NO
SIGNIFICANT WEATHER AND/OR OBSTRUCTIONS TO VISIBILITY.


SDZ001>005-009-010-012>017-271700-
NORTHWEST AND NORTH CENTRAL SOUTH DAKOTA

CITY           SKY/WX    TMP DP  RH WIND       PRES   REMARKS
BUFFALO          N/A     78  54  43 S14       29.60F
FAITH            N/A     75  56  51 S32G40    29.65F
MOBRIDGE       SUNNY     75  51  43 S26G37    29.72F
$$

SDZ012>016-024>037-041>051-057-063-072>074-271700-
SOUTHWEST AND SOUTH CENTRAL SOUTH DAKOTA

CITY           SKY/WX    TMP DP  RH WIND       PRES   REMARKS
RAPID CTY ARPT SUNNY     77  57  50 S25G35    29.68F
PIERRE         SUNNY     76  54  46 S28G37    29.77F
CUSTER         CLOUDY    72  51  47 SW14G22   29.85F
ELLSWORTH AFB  SUNNY     78  58  49 S22G30    29.67F
PHILIP         SUNNY     79  60  52 S20G32    29.71F
PINE RIDGE     SUNNY     75  59  57 S28G36    29.76F
SPEARFISH      LGT RAIN  84  52  32 NW9G15    29.72S
WINNER         FAIR      77  53  43 S26G38    29.84F
$$

SDZ004>011-016>023-039-040-271700-
NORTHEAST SOUTH DAKOTA

CITY           SKY/WX    TMP DP  RH WIND       PRES   REMARKS
ABERDEEN       SUNNY     69  47  45 S22G32    29.87F
WATERTOWN      MOSUNNY   68  44  42 S18G28    29.94F
BROOKINGS      SUNNY     68  44  42 S20G30    29.97F
SISSETON         N/A     70  46  42 S18G28    29.91F
$$

SDZ017-020-022-023-036>040-048>070-271700-
SOUTHEAST SOUTH DAKOTA

CITY           SKY/WX    TMP DP  RH WIND       PRES   REMARKS
SIOUX FALLS    MOSUNNY   70  50  49 S20G28    29.99F
HURON          MOSUNNY   71  50  47 S18G25    29.90F
CHAMBERLAIN    MOSUNNY   76  52  42 S23       29.87F
MITCHELL       SUNNY     73  50  44 S21G30    29.93F
YANKTON        SUNNY     72  52  49 S22G29    29.97F
$$

ABBREVIATIONS USED IN REMARKS
   TC - TEMPERATURE IN CELSIUS
  WCI - WIND CHILL INDEX
   HX - HEAT INDEX
  VSB - VISIBILITY





USA.gov is the U.S. government's official web portal to all federal, state and local government web resources and services.